SENTINEL-5P (42969 NORAD) Tracking and Keplerian Element Data

This shows tracking and keplerian element data for the satellite.

Feedback or suggestion? Click here.




ElementValue
Catalog42969
NameSENTINEL-5P
Epoch Orbit37885
Epoch Day34.7988143
Epoch Year2025
RAAN336.7561
Inclination98.7463
Eccentricity9.89E-05
Argument of Perigee75.3981
Mean Anonmoly284.7305
Mean Motion14.19556888
Decay Rate2.41E-06
L11 42969U 17064A 25034.79881430 .00000241 00000+0 13510-3 0 9991
L22 42969 98.7463 336.7561 0000989 75.3981 284.7305 14.19556888378854



Live tracking and technical data element details for SENTINEL-5P (NORAD 42969). SENTINEL-5P can be tracked NOW for your location showing map with azimuth and elevation plus other details from your city location.







IsCatalogInMostPopularTable: catalog: 42969, numindb: 1328
Update: records affected: 1



GetName: 42969 SENTINEL-5P

Hit Count: updated at: Wed, 30 Apr 2025 17:15:13 GMT